Holland, MI

8:20 AM EDT on July 30, 2016 (GMT -0400)
Tulip City

Weather History for KBIV - December, 2014

Change the Weather History Date:

Friday, December 26, 2014

  Actual Average Record
Temperature  
Mean Temperature 43 °F 29 °F  
Max Temperature 49 °F 34 °F 62 °F (1982)
Min Temperature 36 °F 24 °F 0 °F (1951)
Degree Days  
Heating Degree Days 22 36  
Month to date heating degree days 759 860  
Since 1 July heating degree days 2150 2083  
Cooling Degree Days 0 0  
Month to date cooling degree days 0 0  
Year to date cooling degree days 570 693  
Moisture  
Dew Point 35 °F    
Average Humidity 75    
Maximum Humidity 85    
Minimum Humidity 65    
Precipitation  
Precipitation 0.00 in 0.05 in 0.31 in (1985)
Month to date precipitation 1.38 2.02  
Year to date precipitation 33.55 36.18  
Sea Level Pressure  
Sea Level Pressure 30.06 in    
Wind  
Wind Speed 10 mph (South)    
Max Wind Speed 22 mph    
Max Gust Speed 27 mph    
Visibility 10 miles    
Events      
T = Trace of Precipitation, MM = Missing Value Source: NWS Daily Summary

Daily Weather History Graph

Daily Weather History Graph

Search for Another Location

Airport or City:

Trip Planner

Search our weather history database for the weather conditions in past years. The results will help you decide how hot, cold, wet, or windy it might be!

Date:

Astronomy

Dec. 26, 2014 Rise Set
Actual Time 8:13 AM EST 5:16 PM EST
Civil Twilight 7:41 AM EST 5:48 PM EST
Nautical Twilight 7:05 AM EST 6:24 PM EST
Astronomical Twilight 6:31 AM EST 6:58 PM EST
Moon 11:18 AM EST (12/26) 11:05 PM EST (12/26)
Length of Visible Light 10h 07m
Length of Day
9h 02m
Waxing Crescent, 27% of the Moon is Illuminated
Dec 26
Waxing Crescent
Dec 28
First Quarter
Jan 4
Full
Jan 13
Last Quarter
Jan 20
New

Hourly Weather History & Observations

Time (EST) Temp. Windchill Dew Point Humidity Pressure Visibility Wind Dir Wind Speed Gust Speed Precip Events Conditions
12:53 AM 37.9 °F 31.5 °F 32.0 °F 79% 30.07 in 10.0 mi South 9.2 mph - N/A   Clear
1:53 AM 37.9 °F 30.9 °F 32.0 °F 79% 30.06 in 10.0 mi South 10.4 mph - N/A   Clear
2:53 AM 37.9 °F 32.1 °F 32.0 °F 79% 30.06 in 10.0 mi South 8.1 mph - N/A   Clear
3:53 AM 37.9 °F 31.5 °F 32.0 °F 79% 30.05 in 10.0 mi South 9.2 mph - N/A   Clear
4:53 AM 37.9 °F 31.5 °F 32.0 °F 79% 30.04 in 10.0 mi South 9.2 mph - N/A   Clear
5:53 AM 37.9 °F 31.5 °F 32.0 °F 79% 30.05 in 10.0 mi South 9.2 mph - N/A   Clear
6:53 AM 37.0 °F 30.4 °F 30.9 °F 79% 30.06 in 10.0 mi South 9.2 mph - N/A   Clear
7:53 AM 36.0 °F 29.6 °F 30.9 °F 82% 30.06 in 10.0 mi South 8.1 mph - N/A   Clear
8:53 AM 37.0 °F 31.0 °F 32.0 °F 82% 30.06 in 10.0 mi South 8.1 mph - N/A   Clear
9:53 AM 39.9 °F 32.5 °F 33.1 °F 77% 30.07 in 10.0 mi SSW 12.7 mph - N/A   Clear
10:53 AM 45.0 °F 37.6 °F 35.1 °F 68% 30.09 in 10.0 mi SW 17.3 mph 26.5 mph N/A   Clear
11:53 AM 45.0 °F 37.1 °F 35.1 °F 68% 30.06 in 10.0 mi SSW 19.6 mph - N/A   Clear
12:53 PM 46.0 °F 39.0 °F 35.1 °F 66% 30.05 in 10.0 mi SW 17.3 mph 24.2 mph N/A   Clear
1:53 PM 46.9 °F - 36.0 °F 66% 30.03 in 10.0 mi SW 16.1 mph 23.0 mph N/A   Clear
2:53 PM 46.9 °F - 36.0 °F 66% 30.03 in 10.0 mi SW 15.0 mph 24.2 mph N/A   Clear
3:53 PM 46.9 °F - 36.0 °F 66% 30.05 in 10.0 mi SW 12.7 mph - N/A   Clear
4:53 PM 46.0 °F 41.0 °F 37.0 °F 71% 30.04 in 10.0 mi SW 10.4 mph - N/A   Clear
5:53 PM 44.1 °F 40.1 °F 36.0 °F 73% 30.06 in 10.0 mi SW 6.9 mph - N/A   Clear
6:53 PM 41.0 °F - 35.1 °F 79% 30.07 in 10.0 mi Calm Calm - N/A   Clear
7:27 PM 41.0 °F - 36.0 °F 82% 30.06 in 10.0 mi Calm Calm - N/A   Mostly Cloudy
7:53 PM 39.9 °F 37.8 °F 36.0 °F 86% 30.07 in 10.0 mi SE 3.5 mph - N/A   Overcast
8:18 PM 42.1 °F - 36.0 °F 79% 30.06 in 10.0 mi Calm Calm - N/A   Overcast
8:53 PM 42.1 °F 40.2 °F 37.0 °F 82% 30.08 in 10.0 mi SE 3.5 mph - N/A   Overcast
9:53 PM 42.1 °F 38.4 °F 37.0 °F 82% 30.07 in 10.0 mi SSE 5.8 mph - N/A   Overcast
10:53 PM 45.0 °F 41.2 °F 39.0 °F 80% 30.07 in 10.0 mi South 6.9 mph - N/A   Overcast
11:05 PM 45.0 °F 41.8 °F 39.0 °F 80% 30.06 in 10.0 mi South 5.8 mph - N/A   Overcast
11:36 PM 45.0 °F 41.8 °F 39.0 °F 80% 30.05 in 10.0 mi SSE 5.8 mph - N/A   Overcast
11:53 PM 46.0 °F 41.9 °F 39.9 °F 79% 30.06 in 10.0 mi South 8.1 mph - N/A   Overcast